Weather History for KGBG - February, 2015

Change the Weather History Date:

Saturday, February 28, 2015

  Actual Average Record
Temperature  
Mean Temperature 7 °F -  
Max Temperature 22 °F 42 °F 62 °F (1965)
Min Temperature -8 °F 25 °F -8 °F (2015)
Degree Days  
Heating Degree Days 58    
Moisture  
Dew Point 5 °F    
Average Humidity 78    
Maximum Humidity 95    
Minimum Humidity 49    
Precipitation  
Precipitation 0.00 in - - ()
Sea Level Pressure  
Sea Level Pressure 30.57 in    
Wind  
Wind Speed 4 mph (ESE)    
Max Wind Speed 10 mph    
Max Gust Speed -    
Visibility 8 miles    
Events Snow    
Averages and records for this station are not official NWS values.
T = Trace of Precipitation, MM = Missing Value Source: NWS Daily Summary

Daily Weather History Graph

Daily Weather History Graph

Search for Another Location

Airport or City:

Trip Planner

Search our weather history database for the weather conditions in past years. The results will help you decide how hot, cold, wet, or windy it might be!

Date:

Astronomy

Feb. 28, 2015 Rise Set
Actual Time 6:37 AM CST 5:51 PM CST
Civil Twilight 6:10 AM CST 6:19 PM CST
Nautical Twilight 5:38 AM CST 6:50 PM CST
Astronomical Twilight 5:06 AM CST 7:22 PM CST
Moon 1:32 PM CST (2/28) 3:18 AM CST (2/28)
Length of Visible Light 12h 08m
Length of Day
11h 13m
Waxing Gibbous, 79% of the Moon is Illuminated
Feb 28
Waxing Gibbous
Mar 5
Full
Mar 13
Last Quarter
Mar 20
New
Mar 27
First Quarter

Hourly Weather History & Observations

Time (CST) Temp. Windchill Dew Point Humidity Pressure Visibility Wind Dir Wind Speed Gust Speed Precip Events Conditions
12:15 AM -6.3 °F -15.1 °F -9.9 °F 84% 30.64 in 10.0 mi ESE 3.5 mph - N/A   Clear
12:35 AM -8.0 °F -16.9 °F -11.2 °F 86% 30.64 in 10.0 mi East 3.5 mph - N/A   Clear
12:55 AM -5.8 °F -14.5 °F -9.4 °F 84% 30.64 in 10.0 mi East 3.5 mph - N/A   Scattered Clouds
1:15 AM -6.0 °F -14.7 °F -9.4 °F 85% 30.64 in 10.0 mi East 3.5 mph - N/A   Scattered Clouds
1:35 AM -5.3 °F - -8.7 °F 85% 30.64 in 10.0 mi Calm Calm - N/A   Clear
1:55 AM -3.3 °F -11.6 °F -6.5 °F 86% 30.64 in 10.0 mi East 3.5 mph - N/A   Clear
2:15 AM -3.5 °F - -6.7 °F 86% 30.64 in 10.0 mi Calm Calm - N/A   Clear
2:35 AM -3.3 °F -11.6 °F -7.1 °F 84% 30.64 in 10.0 mi East 3.5 mph - N/A   Clear
2:55 AM -4.7 °F -13.2 °F -8.7 °F 83% 30.63 in 10.0 mi East 3.5 mph - N/A   Clear
3:15 AM -5.4 °F - -8.9 °F 85% 30.63 in 10.0 mi Calm Calm - N/A   Mostly Cloudy
3:35 AM -3.5 °F -11.8 °F -7.1 °F 85% 30.63 in 10.0 mi East 3.5 mph - N/A   Mostly Cloudy
3:55 AM -1.5 °F -9.5 °F -4.9 °F 85% 30.63 in 10.0 mi East 3.5 mph - N/A   Scattered Clouds
4:15 AM -0.0 °F -7.9 °F -3.3 °F 86% 30.64 in 10.0 mi East 3.5 mph - N/A   Clear
4:35 AM -0.0 °F -9.9 °F -3.6 °F 85% 30.64 in 10.0 mi East 4.6 mph - N/A   Scattered Clouds
4:55 AM 0.3 °F -9.5 °F -3.3 °F 85% 30.64 in 10.0 mi East 4.6 mph - N/A   Overcast
5:15 AM 0.9 °F -8.9 °F -2.7 °F 85% 30.65 in 10.0 mi East 4.6 mph - N/A   Overcast
5:35 AM 0.5 °F -7.3 °F -3.1 °F 85% 30.65 in 10.0 mi ESE 3.5 mph - N/A   Overcast
5:55 AM 0.9 °F -8.9 °F -3.1 °F 83% 30.65 in 10.0 mi ESE 4.6 mph - N/A   Overcast
6:15 AM 0.5 °F -9.3 °F -3.3 °F 84% 30.65 in 10.0 mi ESE 4.6 mph - N/A   Overcast
6:35 AM 0.3 °F -7.5 °F -3.8 °F 83% 30.65 in 10.0 mi ESE 3.5 mph - N/A   Overcast
6:55 AM 0.3 °F -7.5 °F -3.8 °F 83% 30.65 in 10.0 mi East 3.5 mph - N/A   Overcast
7:15 AM 1.2 °F -8.5 °F -2.7 °F 83% 30.65 in 10.0 mi ESE 4.6 mph - N/A   Overcast
7:35 AM 2.1 °F -9.0 °F -2.0 °F 83% 30.65 in 10.0 mi ESE 5.8 mph - N/A   Overcast
7:55 AM 3.2 °F -7.8 °F -0.8 °F 84% 30.65 in 10.0 mi ESE 5.8 mph - N/A   Overcast
8:15 AM 5.0 °F -5.6 °F -0.0 °F 80% 30.65 in 10.0 mi ESE 5.8 mph - N/A   Overcast
8:35 AM 6.4 °F -3.9 °F 1.0 °F 78% 30.65 in 10.0 mi ESE 5.8 mph - N/A   Overcast
8:55 AM 7.7 °F -2.4 °F 1.4 °F 75% 30.65 in 10.0 mi ESE 5.8 mph - N/A   Overcast
9:15 AM 9.9 °F 1.6 °F 2.3 °F 71% 30.65 in 10.0 mi ESE 4.6 mph - N/A   Overcast
9:35 AM 12.6 °F 1.1 °F 3.2 °F 66% 30.65 in 10.0 mi ESE 8.1 mph - N/A   Overcast
9:55 AM 13.3 °F 2.0 °F 3.4 °F 65% 30.64 in 10.0 mi ESE 8.1 mph - N/A   Overcast
10:15 AM 14.0 °F 3.9 °F 3.7 °F 64% 30.64 in 10.0 mi ESE 6.9 mph - N/A   Scattered Clouds
10:35 AM 15.3 °F 7.9 °F 3.9 °F 61% 30.63 in 10.0 mi ESE 4.6 mph - N/A   Clear
10:55 AM 16.5 °F 6.0 °F 4.5 °F 59% 30.63 in 10.0 mi SSE 8.1 mph - N/A   Clear
11:15 AM 17.6 °F 5.7 °F 4.1 °F 56% 30.62 in 10.0 mi SSE 10.4 mph - N/A   Clear
11:35 AM 18.0 °F 7.7 °F 4.6 °F 56% 30.61 in 10.0 mi SSE 8.1 mph - N/A   Clear
11:55 AM 18.7 °F 9.5 °F 4.8 °F 55% 30.61 in 10.0 mi SSE 6.9 mph - N/A   Clear
12:15 PM 19.8 °F 9.9 °F 4.6 °F 52% 30.60 in 10.0 mi South 8.1 mph - N/A   Clear
12:35 PM 20.3 °F 11.5 °F 5.0 °F 52% 30.58 in 10.0 mi SSE 6.9 mph - N/A   Clear
12:55 PM 20.7 °F 11.9 °F 6.1 °F 53% 30.57 in 10.0 mi SSE 6.9 mph - N/A   Clear
1:15 PM 21.7 °F 15.5 °F 5.5 °F 50% 30.55 in 10.0 mi SSE 4.6 mph - N/A   Clear
1:35 PM 21.2 °F 11.7 °F 5.7 °F 51% 30.54 in 10.0 mi ESE 8.1 mph - N/A   Scattered Clouds
1:55 PM 21.2 °F 12.6 °F 4.5 °F 49% 30.54 in 10.0 mi ESE 6.9 mph - N/A   Overcast
2:15 PM 22.1 °F 14.7 °F 5.5 °F 49% 30.54 in 10.0 mi SSE 5.8 mph - N/A   Overcast
2:35 PM 22.3 °F 14.9 °F 6.1 °F 50% 30.53 in 10.0 mi SE 5.8 mph - N/A   Overcast
2:55 PM 22.1 °F 15.9 °F 6.4 °F 51% 30.52 in 10.0 mi ESE 4.6 mph - N/A   Overcast
3:15 PM 22.1 °F 15.9 °F 6.1 °F 50% 30.52 in 10.0 mi ESE 4.6 mph - N/A   Overcast
3:35 PM 21.7 °F 15.5 °F 9.1 °F 58% 30.51 in 10.0 mi SSE 4.6 mph - N/A   Overcast
3:55 PM 21.0 °F 11.4 °F 13.1 °F 71% 30.51 in 5.0 mi SSE 8.1 mph - N/A Snow Light Snow
4:15 PM 20.3 °F 12.5 °F 14.4 °F 78% 30.50 in 4.0 mi SSE 5.8 mph - N/A Snow Light Snow
4:35 PM 19.9 °F 14.9 °F 14.9 °F 81% 30.50 in 1.5 mi South 3.5 mph - N/A Snow Light Snow
4:55 PM 19.8 °F - 16.2 °F 86% 30.49 in 0.8 mi Calm Calm - N/A Snow Light Snow
5:15 PM 19.4 °F - 16.7 °F 89% 30.49 in 1.0 mi Calm Calm - N/A Snow Light Snow
5:35 PM 19.4 °F 14.3 °F 17.2 °F 91% 30.48 in 1.2 mi ESE 3.5 mph - N/A Snow Light Snow
5:55 PM 19.4 °F - 17.2 °F 91% 30.48 in 1.2 mi Calm Calm - N/A Snow Light Snow
6:15 PM 19.4 °F 14.3 °F 17.4 °F 92% 30.48 in 2.0 mi ESE 3.5 mph - N/A Snow Light Snow
6:35 PM 19.2 °F - 17.4 °F 93% 30.48 in 4.0 mi Calm Calm - N/A Snow Light Snow
6:55 PM 19.2 °F 14.1 °F 17.1 °F 91% 30.47 in 5.0 mi ESE 3.5 mph - N/A Snow Light Snow
7:15 PM 19.0 °F 13.9 °F 17.1 °F 92% 30.47 in 4.0 mi ESE 3.5 mph - N/A Snow Light Snow
7:35 PM 19.0 °F 13.9 °F 17.2 °F 93% 30.47 in 3.0 mi ESE 3.5 mph - N/A Snow Light Snow
7:55 PM 19.4 °F 14.3 °F 17.6 °F 93% 30.46 in 4.0 mi ESE 3.5 mph - N/A Snow Light Snow
8:15 PM 18.3 °F 11.5 °F 16.7 °F 93% 30.46 in 4.0 mi ESE 4.6 mph - N/A Snow Light Snow
8:55 PM 17.6 °F - 16.2 °F 94% 30.46 in 5.0 mi Calm Calm - N/A Snow Light Snow
9:15 PM 17.4 °F 12.1 °F 16.0 °F 94% 30.45 in 4.0 mi ESE 3.5 mph - N/A Snow Light Snow
9:35 PM 17.6 °F 12.3 °F 16.3 °F 95% 30.44 in 5.0 mi SE 3.5 mph - N/A Snow Light Snow
9:55 PM 18.1 °F - 16.5 °F 93% 30.45 in 7.0 mi Calm Calm - N/A Snow Light Snow
10:15 PM 18.0 °F - 16.3 °F 93% 30.44 in 7.0 mi Calm Calm - N/A Snow Light Snow
10:35 PM 17.6 °F - 16.2 °F 94% 30.44 in 7.0 mi Calm Calm - N/A Snow Light Snow
10:55 PM 18.0 °F - 16.3 °F 93% 30.44 in 7.0 mi Calm Calm - N/A Snow Light Snow
11:15 PM 18.1 °F 12.9 °F 16.7 °F 94% 30.43 in 7.0 mi ESE 3.5 mph - N/A Snow Light Snow
11:35 PM 18.3 °F 13.1 °F 16.7 °F 93% 30.41 in 7.0 mi ESE 3.5 mph - N/A Snow Light Snow
11:55 PM 18.3 °F 13.1 °F 16.7 °F 93% 30.40 in 7.0 mi ESE 3.5 mph - N/A Snow Light Snow